THORAD AGENA D DEB

Satellite information

Favourite Embed

Satellite Type and Status

DEBRISIN ORBIT

Key statistics

Satellite THORAD AGENA D DEB at a glance.

Uptime

20123

Days in orbit

Revolutions

≈ 14.2

Per day

Orbit

SSO

Sun Synchronous Orbit

Inclination

99.8

Latest

Satellite identification and parameters

Extended collection of information and parameters for THORAD AGENA D DEB.

Object identification

Identified? True

Debris? True

Object name: THORAD AGENA D DEB

International designator: 1970-025HY

Object number (NORAD): 5024

Object ID (CCSDS): 5024

Country: UNITED STATES OF AMERICA (US)

Current information (Y/N): Y

RCS size: SMALL

Orbital parameters

Period: 101.137 minutes

Inclination: 99.7995 deg

SMA: 7190.617 km

Apoapsis: 873.196 km

Periapsis: 751.767 km

RAAN: 46.7072 deg

Eccentricy: 0.0084436

Argument of periapsis: 173.1506 deg

Mean anomaly: 187.0844 deg

Mean motion: 14.23814983 rev/day

Mean motion (dot): 0.00001389 rev/day2

B* drag term: 0.00060757 1/REarth

Two-line elements (TLE)

Creation date: May 12, 2025, 2:31 a.m.

Reference frame: TEME

Reference center: EARTH

Epoch: May 11, 2025, 4:46 p.m. UTC

TLE line 0: 0 THORAD AGENA D DEB

TLE line 1: 1 05024U 70025HY 25131.69912560 .00001389 00000-0 60757-3 0 9994

TLE line 2: 2 05024 99.7995 46.7072 0084436 173.1506 187.0844 14.23814983814845

Live tracking on map

Real-time ground track for satellite THORAD AGENA D DEB.

In-orbit conjunctions

A list of the most updated potential collisions computed for object THORAD AGENA D DEB.

Target Orbit TCA Probability of collision Miss distance Type
CZ-6A DEB LEO 2025-01-23 01:14:57 0.0002978722 915.0 (m) DEBRIS
FENGYUN 1C DEB SSO 2024-09-27 00:56:27 0.0001154343 631.0 (m) DEBRIS
FENGYUN 1C DEB SSO 2024-08-15 13:53:37 0.0001119415 324.0 (m) DEBRIS

Associated space launch

Meteorological research and development satellite

THORAD AGENA D DEB was lifted into orbit during the mission ‘Thorad SLV-2G Agena D | Nimbus 4’, on board a Thorad SLV-2G Agena D space rocket.

The launch took place on April 8, 1970, 8:17 a.m. from Space Launch Complex 2E.

For more information about the launch, click the button.

Launch to space Thorad SLV-2G Agena D | Nimbus 4
Thorad SLV-2G Agena D | Nimbus 4

Agency: N/A

Status: Launch Successful

Launch date: April 8, 1970, 8:17 a.m. UTC

Rocket: Thorad SLV-2G Agena D

Launch pad: Space Launch Complex 2E

Location: Vandenberg SFB, CA, USA

...

Latest news about this satellite

There are no fresh news available about this satellite. Check back as we update our databases every day.


Newsletter sign-up

Weekly statistics, charts and insights to help you stay on top of the space industry.